{"data":{"norad_id":45572,"epoch":"2026-05-24T19:22:29.622720Z","epoch_age_seconds":95680,"freshness":"FRESH","line1":"1 45572U 20025AT  26144.80728730  .00111973  00000+0  52549-3 0  9993","line2":"2 45572  53.0441 326.3491 0004735 271.9985  88.0494 15.82366190338806","mean_motion":15.8236619,"eccentricity":0.0004735,"inclination_deg":53.0441,"raan_deg":326.3491,"arg_perigee_deg":271.9985,"mean_anomaly_deg":88.0494,"bstar":0.00052549,"rev_number":33880,"period_min":91.00295551689,"perigee_km":320.57784577201,"apogee_km":326.92453388778,"semimajor_km":6701.8881898299,"source":"CELESTRAK","updated_at":"2026-05-25T13:38:16.424091Z"}}